Regional Weather Roundup
Issued by NWS

Home | Current Version | Previous Version | Text Only | Print | Product List | Glossary On
Versions: 1 2 3 4 5 6 7 8 9 10 11 12 13 14 15 16 17 18 19 20 21 22 23 24 25 26 27 28 29 30 31 32 33 34 35 36 37 38 39 40 41 42 43 44 45 46 47 48 49 50
000
ASUS43 KTOP 251659
RWRKS

WEATHER ROUNDUP FOR KANSAS
NATIONAL WEATHER SERVICE GOODLAND KS
1100 AM CST SUN FEB 25 2018

NOTE:  "FAIR" INDICATES FEW OR NO CLOUDS BELOW 12,000 FEET WITH NO
SIGNIFICANT WEATHER AND/OR OBSTRUCTIONS TO VISIBILITY.

KSZ001>006-013>018-027>032-041>047-251800-
NORTHWEST KANSAS

CITY           SKY/WX    TMP DP  RH WIND       PRES   REMARKS
GOODLAND       SUNNY     40  10  29 SW16G25   29.96R WCI  31
HAYS           PTSUNNY   40  13  33 SW7       30.03S
HILL CITY      MOSUNNY   40  17  39 W7        30.02S
RUSSELL        CLOUDY    44  17  33 S8        30.02S
$$

KSZ061>065-074>080-084>089-251800-
SOUTHWEST KANSAS

CITY           SKY/WX    TMP DP  RH WIND       PRES   REMARKS
DODGE CITY     MOSUNNY   43  11  27 E8        29.99S
GARDEN CITY    CLOUDY    36   7  29 W5        30.00R
GREAT BEND     CLOUDY    41  21  44 SE7       30.02F
LIBERAL        SUNNY     39  19  44 VRB5      29.99R
$$

KSZ066>073-081>083-090>101-251800-
SOUTHEAST KANSAS

CITY           SKY/WX    TMP DP  RH WIND       PRES   REMARKS
CHANUTE        SUNNY     43  29  57 SE6       30.10F
COFFEYVILLE    SUNNY     45  36  70 VRB3      30.11S
HUTCHINSON     PTSUNNY   40  25  55 SE6       30.06R
MEDICINE LODGE   N/A     46  29  51 SE13G22   30.00F
NEWTON         MOSUNNY   40  28  62 S10       30.07R WCI  33
PARSONS        SUNNY     45  30  55 S6        30.12S
WICHITA INTL   MOSUNNY   45  23  42 SE7       30.06F
WICHITA JABRA  MOSUNNY   43  24  47 SE7       30.05F
WICHITA MCCONL SUNNY     44  24  45 SE6       30.06S
WINFIELD       SUNNY     47  35  63 S10       30.08R
$$

KSZ007>012-019>026-033>040-048>060-102>105-251800-
NORTHEAST KANSAS

CITY           SKY/WX    TMP DP  RH WIND       PRES   REMARKS
CONCORDIA      SUNNY     38  24  57 SW10      30.04R WCI  31
EMPORIA        MOSUNNY   43  24  47 S15       30.07R
LAWRENCE       SUNNY     42  27  55 SW6       30.09R
MANHATTAN      CLOUDY    41  24  51 SW10      30.07R
OLATHE IND     SUNNY     42  28  57 S12       30.09R
OLATHE EXE     SUNNY     40  28  62 SW8       30.08S
SALINA         PTSUNNY   45  23  42 SW9       30.06S
TOPEKA BILLARD SUNNY     44  25  47 SW8       30.07F
TOPEKA FORBES  MOSUNNY   44  26  49 SW13      30.06S
$$



USA.gov is the U.S. government's official web portal to all federal, state and local government web resources and services.